Regional Weather Roundup
Issued by NWS

Home | Current Version | Previous Version | Text Only | Print | Product List | Glossary On
Versions: 1 2 3 4 5 6 7 8 9 10 11 12 13 14 15 16 17 18 19 20 21 22 23 24 25 26 27 28 29 30 31 32 33 34 35 36 37 38 39 40 41 42 43 44 45 46 47 48 49 50
000
ASUS43 KOAX 141510
RWRNE

WEATHER ROUNDUP FOR NEBRASKA
NATIONAL WEATHER SERVICE OMAHA NE
900 AM CST SUN FEB 14 2016

NOTES: SATELLITE DATA IS BEING USED TO AUGMENT CLOUD COVER ABOVE
       12000 FEET.
       "FAIR" INDICATES FEW OR NO CLOUDS BELOW 12,000 FEET WITH NO
       SIGNIFICANT WEATHER AND/OR OBSTRUCTIONS TO VISIBILITY.

  * THESE STATIONS DO NOT REPORT WEATHER SUCH AS RAIN...SNOW OR FOG.

NEZ001>004-019>022-054>056-141600-
NEBRASKA PANHANDLE

CITY           SKY/WX    TMP DP  RH WIND       PRES   REMARKS
SCOTTSBLUFF    CLOUDY    29  24  82 CALM      29.89R
ALLIANCE       PTSUNNY   28  23  81 W5        29.87R WCI  23
CHADRON        CLOUDY    31  25  78 SW6       29.88S WCI  25
KIMBALL        CLOUDY    30  25  80 CALM      29.90S
SIDNEY         SUNNY     32  24  72 SW6       29.89F WCI  26
$$

NEZ057>060-069>072-079>082-141600-
SOUTHWEST NEBRASKA

CITY           SKY/WX    TMP DP  RH WIND       PRES   REMARKS
NORTH PLATTE   SUNNY     31  25  78 NW7       29.88F WCI  24
IMPERIAL       CLOUDY    32  23  69 NW7       29.92F WCI  26
LEXINGTON      CLOUDY    34  27  75 NW7       29.90S WCI  28
MCCOOK         SUNNY     33  26  75 W10       29.93R WCI  25
OGALLALA       MOSUNNY   32  26  80 SW3       29.90F
$$

NEZ005>010-023>029-035>040-094-141600-
NORTH CENTRAL NEBRASKA

CITY           SKY/WX    TMP DP  RH WIND       PRES   REMARKS
VALENTINE      SUNNY     33  27  78 NW6       29.82F WCI  28
AINSWORTH      SUNNY     34  29  82 NW7       29.83S WCI  28
BROKEN BOW     SUNNY     38  28  67 NW12      29.84F WCI  30
O`NEILL        MOSUNNY   38  32  80 NW13      29.82R WCI  30
ORD            SUNNY     39  29  67 NW17      29.84S WCI  30
THEDFORD       CLOUDY    37  29  71 W8        29.85F WCI  31
$$

NEZ041-046>049-061>064-073>077-083>087-141600-
SOUTH CENTRAL NEBRASKA

CITY           SKY/WX    TMP DP  RH WIND       PRES   REMARKS
GRAND ISLAND   SUNNY     33  26  75 W13       29.88R WCI  24
AURORA         CLOUDY    32  28  83 W13       29.87R WCI  22
HASTINGS       SUNNY     33  25  72 NW12      29.87F WCI  24
HEBRON         SUNNY     27  19  71 W9        29.90F WCI  18
HOLDREGE       SUNNY     32  24  73 W7        29.90S WCI  26
KEARNEY *      SUNNY     36  27  69 W10       29.89S WCI  28
YORK           CLOUDY    34  28  80 W15       29.86S WCI  24
$$

NEZ011>018-030>034-042>045-141600-
NORTHEAST NEBRASKA

CITY           SKY/WX    TMP DP  RH WIND       PRES   REMARKS
NORFOLK        LGT SNOW  28  25  88 W6        29.82R FOG     WCI  22
ALBION         CLOUDY    38  32  77 NW12      29.82S WCI  31
BLAIR          CLOUDY    22  15  74 S13       29.85F WCI  10
COLUMBUS *     CLOUDY    30  19  64 W6        29.84S WCI  24
FREMONT        CLOUDY    23  14  68 S6        29.86S WCI  16
TEKAMAH        CLOUDY    21  15  78 SE13      29.88F WCI   9
WAYNE          CLOUDY    20  17  86 S6        29.84S WCI  12
$$

NEZ050>053-065>068-078-088>093-141600-
SOUTHEAST NEBRASKA

CITY           SKY/WX    TMP DP  RH WIND       PRES   REMARKS
LINCOLN        CLOUDY    24  15  68 S10       29.89F WCI  14
OMAHA EPPLEY   CLOUDY    24  11  57 S14       29.90F WCI  12
BEATRICE       PTSUNNY   25  14  61 SW10      29.91F WCI  15
FALLS CITY       N/A     26   9  48 S12       29.95F WCI  16
NEBRASKA CITY  CLOUDY    25   9  50 SW16      29.91F WCI  12
PLATTSMOUTH    CLOUDY    24  11  57 S14       29.89F WCI  12
$$

NEZ044-045-051>053-067-141600-
OMAHA AREA

CITY           SKY/WX    TMP DP  RH WIND       PRES   REMARKS
OMAHA EPPLEY   CLOUDY    24  11  57 S14       29.90F WCI  12
BLAIR          CLOUDY    22  15  74 S13       29.85F WCI  10
FREMONT        CLOUDY    23  14  68 S6        29.86S WCI  16
MILLARD        CLOUDY    24  13  62 S7        29.89F WCI  16
OFFUTT AFB     CLOUDY    25  11  56 S9        29.89F WCI  15
PLATTSMOUTH    CLOUDY    24  11  57 S14       29.89F WCI  12
WAHOO          CLOUDY    25  17  73 S6        29.87S WCI  18
$$



USA.gov is the U.S. government's official web portal to all federal, state and local government web resources and services.